Atwater, CA

8:02 AM PDT on September 23, 2017 (GMT -0700)
Castle

Weather History for KMER - December, 2013

Change the Weather History Date:

Monday, December 2, 2013

  Actual Average (KMCE) Record (KMCE)
Temperature  
Mean Temperature 53 °F -  
Max Temperature 69 °F 58 °F 67 °F (2013)
Min Temperature 37 °F 36 °F 27 °F (2006)
Degree Days  
Heating Degree Days 12    
Growing Degree Days 3 (Base 50)    
Moisture  
Dew Point 44 °F    
Average Humidity 92    
Maximum Humidity 100    
Minimum Humidity 40    
Precipitation  
Precipitation 0.00 in - - ()
Sea Level Pressure  
Sea Level Pressure 30.09 in    
Wind  
Wind Speed 3 mph (East)    
Max Wind Speed 14 mph    
Max Gust Speed -    
Visibility 7 miles    
Events      
Averages and records for this station are not official NWS values.
T = Trace of Precipitation, MM = Missing Value Source: NWS Daily Summary

Daily Weather History Graph

Daily Weather History Graph

Search for Another Location

Airport or City:

Trip Planner

Search our weather history database for the weather conditions in past years. The results will help you decide how hot, cold, wet, or windy it might be!

Date:

Astronomy

Dec. 02, 2013 Rise Set
Actual Time 6:59 AM PST 4:44 PM PST
Civil Twilight 6:30 AM PST 5:13 PM PST
Nautical Twilight 5:57 AM PST 5:45 PM PST
Astronomical Twilight 5:26 AM PST 6:17 PM PST
Moon 6:30 AM PST (12/2) 4:51 PM PST (12/2)
Length of Visible Light 10h 42m
Length of Day
9h 45m
Waning Crescent, 0% of the Moon is Illuminated
Dec 2
Waning Crescent
Dec 2
New
Dec 9
First Quarter
Dec 17
Full
Dec 25
Last Quarter

Hourly Weather History & Observations

Time (PST) Temp. Windchill Dew Point Humidity Pressure Visibility Wind Dir Wind Speed Gust Speed Precip Events Conditions
12:15 AM 41.0 °F - 41.0 °F 100% 30.25 in 5.0 mi Calm Calm - N/A   Clear
12:35 AM 41.0 °F - 41.0 °F 100% 30.25 in 7.0 mi Calm Calm - N/A   Clear
12:55 AM 39.2 °F 37.0 °F 39.2 °F 100% 30.24 in 6.0 mi SSE 3.5 mph - N/A   Clear
1:15 AM 42.8 °F 41.1 °F 42.8 °F 100% 30.23 in 7.0 mi South 3.5 mph - N/A   Clear
1:35 AM 41.0 °F 39.0 °F 41.0 °F 100% 30.23 in 7.0 mi SE 3.5 mph - N/A   Clear
1:55 AM 39.2 °F 37.0 °F 39.2 °F 100% 30.23 in 6.0 mi South 3.5 mph - N/A   Clear
2:15 AM 39.2 °F - 39.2 °F 100% 30.22 in 5.0 mi Calm Calm - N/A   Clear
2:35 AM 39.2 °F - 39.2 °F 100% 30.22 in 7.0 mi Calm Calm - N/A   Clear
2:55 AM 39.2 °F - 39.2 °F 100% 30.22 in 5.0 mi Calm Calm - N/A   Clear
3:15 AM 39.2 °F - 39.2 °F 100% 30.20 in 5.0 mi Calm Calm - N/A   Clear
3:35 AM 37.4 °F - 37.4 °F 100% 30.19 in 5.0 mi Calm Calm - N/A   Clear
3:55 AM 37.4 °F 34.9 °F 37.4 °F 100% 30.19 in 5.0 mi ESE 3.5 mph - N/A   Clear
4:15 AM 37.4 °F 34.9 °F 37.4 °F 100% 30.18 in 5.0 mi ESE 3.5 mph - N/A   Clear
4:35 AM 37.4 °F - 37.4 °F 100% 30.17 in 5.0 mi Calm Calm - N/A   Clear
4:55 AM 37.4 °F - 37.4 °F 100% 30.17 in 5.0 mi Calm Calm - N/A   Clear
5:15 AM 37.4 °F - 37.4 °F 100% 30.17 in 4.0 mi Calm Calm - N/A   Clear
5:35 AM 37.4 °F - 37.4 °F 100% 30.16 in 5.0 mi Calm Calm - N/A   Clear
5:55 AM 37.4 °F - 37.4 °F 100% 30.16 in 4.0 mi Calm Calm - N/A   Clear
6:45 AM 37.4 °F 32.8 °F 37.4 °F 100% 30.16 in 7.0 mi Variable 5.8 mph - N/A   Clear
7:45 AM 39.2 °F 34.2 °F 39.2 °F 100% 30.18 in 7.0 mi Variable 6.9 mph - N/A   Clear
8:55 AM 50.0 °F - 50.0 °F 100% 30.18 in 5.0 mi SSE 9.2 mph - N/A   Haze
9:45 AM 55.4 °F - 53.6 °F 94% 30.18 in 4.0 mi SE 6.9 mph - N/A   Haze
10:45 AM 62.6 °F - 48.2 °F 59% 30.14 in 4.0 mi SSE 5.8 mph - N/A   Haze
11:45 AM 64.4 °F - 50.0 °F 59% 30.10 in 5.0 mi South 9.2 mph - N/A   Haze
12:45 PM 66.2 °F - 44.6 °F 46% 30.07 in 5.0 mi SSE 3.5 mph - N/A   Haze
1:45 PM 69.8 °F - 44.6 °F 40% 30.02 in 5.0 mi South 8.1 mph - N/A   Haze
2:45 PM 69.8 °F - 44.6 °F 40% 30.00 in 5.0 mi South 6.9 mph - N/A   Haze
3:50 PM 64.4 °F - 44.6 °F 49% 30.00 in 5.0 mi South 6.9 mph - N/A   Haze
4:45 PM 60.8 °F - 48.2 °F 63% 29.99 in 5.0 mi Calm Calm - N/A   Haze
5:45 PM 53.6 °F - 51.8 °F 94% 29.98 in 10.0 mi Calm Calm - N/A   Clear
6:45 PM 48.2 °F - 48.2 °F 100% 29.96 in 10.0 mi Calm Calm - N/A   Clear
7:45 PM 50.0 °F - 50.0 °F 100% 29.98 in 10.0 mi North 11.5 mph - N/A   Clear
8:15 PM 48.2 °F - 48.2 °F 100% 29.97 in 5.0 mi NE 4.6 mph - N/A   Clear
8:35 PM 48.2 °F - 48.2 °F 100% 29.97 in 5.0 mi NE 8.1 mph - N/A   Clear
8:46 PM 48.2 °F - 48.2 °F 100% 29.97 in 7.0 mi North 13.8 mph - N/A   Clear
8:55 PM 48.2 °F - 48.2 °F 100% 29.97 in 7.0 mi NE 8.1 mph - N/A   Clear
9:15 PM 51.8 °F - 51.8 °F 100% 29.98 in 10.0 mi NNE 8.1 mph - N/A   Clear
9:35 PM 51.8 °F - 51.8 °F 100% 29.98 in 10.0 mi NNE 8.1 mph - N/A   Clear
9:55 PM 51.8 °F - 51.8 °F 100% 29.98 in 10.0 mi NNE 8.1 mph - N/A   Clear
10:15 PM 51.8 °F - 51.8 °F 100% 29.97 in 10.0 mi NNE 8.1 mph - N/A   Clear
10:35 PM 50.0 °F - 50.0 °F 100% 29.96 in 10.0 mi NNE 5.8 mph - N/A   Clear
10:55 PM 48.2 °F - 48.2 °F 100% 29.96 in 10.0 mi North 6.9 mph - N/A   Clear
11:15 PM 48.2 °F - 48.2 °F 100% 29.96 in 10.0 mi North 8.1 mph - N/A   Clear
11:35 PM 48.2 °F - 48.2 °F 100% 29.96 in 10.0 mi North 8.1 mph - N/A   Clear
11:55 PM 48.2 °F - 48.2 °F 100% 29.95 in 10.0 mi North 5.8 mph - N/A   Clear